Weather in Kluang

Malaysia     2°02′10″N   103°17′30″E
В апреле 2022 года жителям России запретили посещать сайт meteo.paraplan.net по решению Генеральной прокуратуры. Аудитория сайта уменьшилась в 10 раз. Владельцы сайта не видят смысла в поддержке погодного сервера в таких условиях. Сайт будет закрыт в октябре.
temp.,
°C
wind,
m/s
gust,
m/s
humid.,
%
clouds,
%
prec.,
mm/h
press.,
hPa
HPBL,
m
3 october, mon
mon323:00+24sse1193100 0.0 101011
02:00+23sw1195100 0.1 100811
05:00+23se1194100 0.9 100811
08:00+24s119221 1.2 100966
11:00+30w236671 0.0 10101012
14:00+31wsw226524 1.1 10071261
17:00+27sse1187100 6.2 100633
20:00+25ne1292100 11.9 100828
4 october, tue
tue423:00+24ene2396100 1.3 101079
02:00+24nne019594 1.6 100814
05:00+23w119692 0.0 100811
08:00+24wnw129375 0.0 1010107
11:00+28w227580 1.0 1011771
14:00+28sw1283100 3.5 1008447
17:00+26ssw1189100 6.1 100717
20:00+24ene2293100 8.7 100935
5 october, wed
wed523:00+24nne2395100 0.2 101169
02:00+23n1195100 0.2 100918
05:00+23nnw119693 0.2 100813
08:00+24w0194100 1.6 101174
11:00+26sw3587100 4.1 1012677
14:00+26sw3587100 7.9 1010725
17:00+25ssw1290100 0.5 1008237
20:00+24s1195100 0.5 101011
6 october, thu
thu623:00+24ene0094100 0.0 101213
02:00+23ene119537 0.1 101013
05:00+23se1196100 0.0 100920
08:00+24se119574 0.0 101045
11:00+28sse2471100 0.9 1012948
14:00+24ese3695100 3.7 1009320
17:00+24ese1295100 0.7 1008242
20:00+23e1196100 0.7 101017
7 october, fri
fri723:00+23ese1196100 0.0 101224
02:00+23ese0196100 0.1 101016
05:00+23wsw009789 1.4 100814
08:00+24ese1195100 3.1 1010109
11:00+29s2271100 0.0 1011848
14:00+27se2381100 0.6 1008288
17:00+29se117354 1.5 1007508
20:00+25e2290100 3.2 100928